SR9NCI Weather Reports


time (UTC)temp
C
wind
direction
speed
KPH
gust
KPH
rain 1hr
cm
rain 24hr
cm
rain mn
cm
humidity
%
barometer
mb
20260508135643 16 338 3.2 6.4 0.00 0.00 0.00
20260508135242 16 329 3.2 6.4 0.00 0.00 0.00
20260508134840 16 347 3.2 6.4 0.00 0.00 0.00
20260508134438 16 8 6.4 12.9 0.00 0.00 0.00
20260508134037 16 351 6.4 12.9 0.00 0.00 0.00
20260508133635 16 7 4.8 9.7 0.00 0.00 0.00
20260508133233 16 4 6.4 9.7 0.00 0.00 0.00
20260508132832 16 4 3.2 8.0 0.00 0.00 0.00
20260508132430 16 340 3.2 6.4 0.00 0.00 0.00
20260508132022 15 8 4.8 9.7 0.00 0.00 0.00
20260508131619 15 354 1.6 4.8 0.00 0.00 0.00
20260508131218 16 338 0.0 3.2 0.00 0.00 0.00
20260508130817 15 338 1.6 3.2 0.00 0.00 0.00
20260508130415 15 332 3.2 6.4 0.00 0.00 0.00
20260508130013 15 353 3.2 8.0 0.00 0.00 0.00
20260508125611 15 352 4.8 6.4 0.00 0.00 0.00
20260508125210 15 339 3.2 6.4 0.00 0.00 0.00
20260508124809 15 323 3.2 9.7 0.00 0.00 0.00
20260508124407 15 293 3.2 9.7 0.00 0.00 0.00
20260508123958 15 340 1.6 8.0 0.00 0.00 0.00
20260508123556 15 0 1.6 4.8 0.00 0.00 0.00
20260508123155 13 0 3.2 6.4 0.00 0.00 0.00
20260508122754 13 344 3.2 8.0 0.00 0.00 0.00
20260508122351 15 3 3.2 8.0 0.00 0.00 0.00
20260508121950 14 353 3.2 9.7 0.00 0.00 0.00
20260508121548 13 292 3.2 6.4 0.00 0.00 0.00
20260508121147 14 292 3.2 6.4 0.00 0.00 0.00
20260508120342 13 319 3.2 6.4 0.00 0.00 0.00
20260508115935 13 338 3.2 6.4 0.00 0.00 0.00
20260508115532 13 295 3.2 6.4 0.00 0.00 0.00
20260508115130 13 303 6.4 9.7 0.00 0.00 0.00
20260508114729 13 333 4.8 9.7 0.00 0.00 0.00
20260508114327 13 338 3.2 6.4 0.00 0.00 0.00
20260508113926 13 315 3.2 6.4 0.00 0.00 0.00
20260508113524 13 318 3.2 6.4 0.00 0.00 0.00
20260508113122 13 334 4.8 8.0 0.00 0.00 0.00
20260508112721 13 331 4.8 11.3 0.00 0.00 0.00
20260508112319 13 309 4.8 9.7 0.00 0.00 0.00
20260508111508 13 303 6.4 11.3 0.00 0.00 0.00
20260508111107 13 333 6.4 9.7 0.00 0.00 0.00
20260508110706 13 315 4.8 9.7 0.00 0.00 0.00
20260508110304 13 328 1.6 9.7 0.00 0.00 0.00
20260508105902 13 338 3.2 4.8 0.00 0.00 0.00
20260508105500 13 338 1.6 3.2 0.00 0.00 0.00
20260508105059 13 335 3.2 6.4 0.00 0.00 0.00
20260508104658 13 327 6.4 9.7 0.00 0.00 0.00
20260508104255 13 342 1.6 4.8 0.00 0.00 0.00
20260508103847 13 351 3.2 8.0 0.00 0.00 0.00
20260508103445 14 296 1.6 4.8 0.00 0.00 0.00
20260508102644 13 333 3.2 8.0 0.00 0.00 0.00
20260508102241 13 307 4.8 8.0 0.00 0.00 0.00
20260508101840 13 346 4.8 8.0 0.00 0.00 0.00
20260508101438 12 338 3.2 6.4 0.00 0.00 0.00
20260508101037 12 332 3.2 8.0 0.00 0.00 0.00
20260508100635 12 292 4.8 6.4 0.00 0.00 0.00
20260508100233 12 306 4.8 9.7 0.00 0.00 0.00
20260508095825 13 292 4.8 9.7 0.00 0.00 0.00
20260508095423 12 296 4.8 8.0 0.00 0.00 0.00
20260508095021 12 315 1.6 3.2 0.00 0.00 0.00
20260508094619 12 315 3.2 6.4 0.00 0.00 0.00
20260508094218 12 338 0.0 3.2 0.00 0.00 0.00
20260508093817 12 306 4.8 8.0 0.00 0.00 0.00
20260508093414 12 323 4.8 9.7 0.00 0.00 0.00
20260508093013 13 353 1.6 8.0 0.00 0.00 0.00
20260508092612 12 353 3.2 9.7 0.00 0.00 0.00
20260508092210 11 335 3.2 9.7 0.00 0.00 0.00
20260508091802 11 335 6.4 11.3 0.00 0.00 0.00
20260508091359 11 352 1.6 6.4 0.00 0.00 0.00
20260508090958 11 338 3.2 4.8 0.00 0.00 0.00
20260508090557 11 338 4.8 8.0 0.00 0.00 0.00
20260508090155 12 338 1.6 4.8 0.00 0.00 0.00
20260508085753 11 351 1.6 4.8 0.00 0.00 0.00
20260508085351 11 325 3.2 9.7 0.00 0.00 0.00
20260508084950 12 315 3.2 8.0 0.00 0.00 0.00
20260508084549 11 315 4.8 8.0 0.00 0.00 0.00
20260508084146 11 338 3.2 8.0 0.00 0.00 0.00
20260508083738 11 339 6.4 9.7 0.00 0.00 0.00
20260508083336 11 319 3.2 6.4 0.00 0.00 0.00
20260508082935 11 313 3.2 9.7 0.00 0.00 0.00
20260508082533 11 315 4.8 9.7 0.00 0.00 0.00
20260508082131 11 303 3.2 6.4 0.00 0.00 0.00
20260508081730 12 293 1.6 8.0 0.00 0.00 0.00
20260508081328 11 303 4.8 9.7 0.00 0.00 0.00
20260508080927 11 292 4.8 14.5 0.00 0.00 0.00
20260508080525 11 292 4.8 8.0 0.00 0.00 0.00
20260508080123 11 325 4.8 9.7 0.00 0.00 0.00
20260508075715 11 338 3.2 6.4 0.00 0.00 0.00
20260508075314 11 331 1.6 6.4 0.00 0.00 0.00
20260508074911 11 317 3.2 6.4 0.00 0.00 0.00
20260508074510 11 338 1.6 6.4 0.00 0.00 0.00
20260508074109 11 325 4.8 6.4 0.00 0.00 0.00
20260508073708 11 315 4.8 6.4 0.00 0.00 0.00
20260508073305 11 320 3.2 8.0 0.00 0.00 0.00
20260508072904 11 321 3.2 8.0 0.00 0.00 0.00
20260508072502 11 343 4.8 9.7 0.00 0.00 0.00
20260508072101 11 338 3.2 8.0 0.00 0.00 0.00
20260508071651 11 338 3.2 4.8 0.00 0.00 0.00
20260508071250 11 320 4.8 12.9 0.00 0.00 0.00
20260508070849 11 340 4.8 8.0 0.00 0.00 0.00
20260508070448 11 333 4.8 8.0 0.00 0.00 0.00
20260508070046 11 44 4.8 12.9 0.00 0.00 0.00
20260508065644 12 67 0.0 0.0 0.00 0.00 0.00
20260508065242 11 67 1.6 3.2 0.00 0.00 0.00
20260508064440 11 67 1.6 4.8 0.00 0.00 0.00
20260508064037 11 67 4.8 8.0 0.00 0.00 0.00
20260508063629 11 67 4.8 6.4 0.00 0.00 0.00
20260508063227 11 67 4.8 8.0 0.00 0.00 0.00
20260508062826 11 67 4.8 8.0 0.00 0.00 0.00
20260508062424 11 67 4.8 8.0 0.00 0.00 0.00
20260508062022 12 67 3.2 4.8 0.00 0.00 0.00
20260508061621 11 67 0.0 3.2 0.00 0.00 0.00
20260508061219 11 67 0.0 0.0 0.00 0.00 0.00
20260508060817 11 67 3.2 4.8 0.00 0.00 0.00
20260508060416 11 67 3.2 6.4 0.00 0.00 0.00
20260508060014 11 90 4.8 8.0 0.00 0.00 0.00
20260508055606 11 90 3.2 4.8 0.00 0.00 0.00
20260508055204 11 90 3.2 4.8 0.00 0.00 0.00
20260508054802 11 90 3.2 6.4 0.00 0.00 0.00
20260508054401 11 90 4.8 8.0 0.00 0.00 0.00
20260508053959 10 92 6.4 8.0 0.00 0.00 0.00
20260508053558 11 111 1.6 3.2 0.00 0.00 0.00
20260508053155 11 111 0.0 1.6 0.00 0.00 0.00
20260508052754 11 111 0.0 3.2 0.00 0.00 0.00
20260508052353 11 111 1.6 4.8 0.00 0.00 0.00
20260508051952 11 98 3.2 6.4 0.00 0.00 0.00
20260508051542 11 67 4.8 8.0 0.00 0.00 0.00
20260508051141 10 66 4.8 9.7 0.00 0.00 0.00
20260508050740 10 11 4.8 8.0 0.00 0.00 0.00
20260508050339 10 30 3.2 8.0 0.00 0.00 0.00
20260508045936 10 63 6.4 12.9 0.00 0.00 0.00
20260508045535 10 345 4.8 8.0 0.00 0.00 0.00
20260508045133 10 310 6.4 14.5 0.00 0.00 0.00
20260508044732 10 326 6.4 11.3 0.00 0.00 0.00
20260508044331 10 312 6.4 12.9 0.00 0.00 0.00
20260508043928 10 317 4.8 6.4 0.00 0.00 0.00
20260508043520 10 314 4.8 8.0 0.00 0.00 0.00
20260508043118 10 295 8.0 12.9 0.00 0.00 0.00
20260508042315 11 306 8.0 12.9 0.00 0.00 0.00
20260508041913 11 302 6.4 14.5 0.00 0.00 0.00
20260508041512 10 295 6.4 11.3 0.00 0.00 0.00
20260508041110 10 310 6.4 11.3 0.00 0.00 0.00
20260508040708 10 303 6.4 12.9 0.00 0.00 0.00
20260508040307 10 305 9.7 14.5 0.00 0.00 0.00
20260508035905 10 299 6.4 11.3 0.00 0.00 0.00
20260508035457 10 309 8.0 12.9 0.00 0.00 0.00
20260508035054 11 318 6.4 12.9 0.00 0.00 0.00
20260508034653 10 295 9.7 12.9 0.00 0.00 0.00
20260508034252 11 305 8.0 14.5 0.00 0.00 0.00
20260508033850 11 311 8.0 14.5 0.00 0.00 0.00
20260508033450 11 301 4.8 8.0 0.00 0.00 0.00
20260508033046 11 298 8.0 11.3 0.00 0.00 0.00
20260508032645 11 295 4.8 8.0 0.00 0.00 0.00
20260508032245 11 307 4.8 9.7 0.00 0.00 0.00
20260508031843 11 292 6.4 11.3 0.00 0.00 0.00
20260508031434 11 297 8.0 16.1 0.00 0.00 0.00
20260508031032 11 292 4.8 8.0 0.00 0.00 0.00
20260508030631 11 304 6.4 9.7 0.00 0.00 0.00
20260508030230 11 302 4.8 9.7 0.00 0.00 0.00
20260508025827 11 292 6.4 11.3 0.00 0.00 0.00
20260508025426 11 292 4.8 6.4 0.00 0.00 0.00
20260508024622 11 292 4.8 9.7 0.00 0.00 0.00
20260508024220 11 292 4.8 8.0 0.00 0.00 0.00
20260508023818 11 292 4.8 8.0 0.00 0.00 0.00
20260508023410 11 292 6.4 11.3 0.00 0.00 0.00
20260508023008 11 292 4.8 6.4 0.00 0.00 0.00
20260508022607 11 289 3.2 6.4 0.00 0.00 0.00
20260508022205 11 292 4.8 6.4 0.00 0.00 0.00
20260508021803 11 292 0.0 3.2 0.00 0.00 0.00
20260508021402 11 292 0.0 3.2 0.00 0.00 0.00
20260508021000 11 292 0.0 1.6 0.00 0.00 0.00
20260508020558 11 292 1.6 3.2 0.00 0.00 0.00
20260508020157 11 292 3.2 4.8 0.00 0.00 0.00
20260508015755 11 292 0.0 3.2 0.00 0.00 0.00
20260508015347 11 292 1.6 4.8 0.00 0.00 0.00
20260508014944 12 292 1.6 6.4 0.00 0.00 0.00
20260508014543 11 292 4.8 8.0 0.00 0.00 0.00
20260508014142 12 311 3.2 4.8 0.00 0.00 0.00
20260508013740 12 315 1.6 3.2 0.00 0.00 0.00
20260508013338 12 315 0.0 3.2 0.00 0.00 0.00
20260508012936 11 315 0.0 0.0 0.00 0.00 0.00
20260508012535 12 315 0.0 0.0 0.00 0.00 0.00
20260508012134 11 315 0.0 0.0 0.00 0.00 0.00
20260508011732 11 315 0.0 1.6 0.00 0.00 0.00
20260508011323 11 315 0.0 3.2 0.00 0.00 0.00
20260508010921 11 315 1.6 3.2 0.00 0.00 0.00
20260508010520 11 315 1.6 4.8 0.00 0.00 0.00
20260508010119 11 313 6.4 11.3 0.00 0.00 0.00
20260508005716 11 302 6.4 14.5 0.00 0.00 0.00
20260508005315 11 292 3.2 8.0 0.00 0.00 0.00
20260508004913 11 313 4.8 12.9 0.00 0.00 0.00
20260508004513 11 308 6.4 12.9 0.00 0.00 0.00
20260508004110 11 321 4.8 9.7 0.00 0.00 0.00
20260508003708 11 303 4.8 9.7 0.00 0.00 0.00
20260508003300 11 315 4.8 9.7 0.00 0.00 0.00
20260508002858 11 296 6.4 9.7 0.00 0.00 0.00
20260508002456 11 308 4.8 8.0 0.00 0.00 0.00
20260508002055 11 292 4.8 6.4 0.00 0.00 0.00
20260508001653 11 292 4.8 8.0 0.00 0.00 0.00
20260508001252 12 292 0.0 3.2 0.00 0.00 0.00
20260508000850 12 292 1.6 6.4 0.00 0.00 0.00
20260508000450 11 292 4.8 8.0 0.00 0.00 0.00
20260508000047 12 311 3.2 6.4 0.00 0.00 0.00
20260507235646 11 293 4.8 8.0 0.00 0.00 0.00
20260507235238 11 307 4.8 11.3 0.00 0.00 0.00
20260507234835 12 297 4.8 12.9 0.00 0.00 0.00
20260507234434 12 296 8.0 11.3 0.00 0.00 0.00
20260507234033 12 297 8.0 14.5 0.00 0.00 0.00
20260507233631 12 293 8.0 16.1 0.00 0.00 0.00
20260507233229 12 292 6.4 12.9 0.00 0.00 0.00
20260507232827 12 292 6.4 11.3 0.00 0.00 0.00
20260507232426 12 292 9.7 12.9 0.00 0.00 0.00
20260507232025 12 292 6.4 9.7 0.00 0.00 0.00
20260507231622 12 284 6.4 11.3 0.00 0.00 0.00
20260507231214 12 292 6.4 9.7 0.00 0.00 0.00
20260507230812 12 304 4.8 9.7 0.00 0.00 0.00
20260507230411 12 338 3.2 6.4 0.00 0.00 0.00
20260507230010 12 338 4.8 6.4 0.00 0.00 0.00
20260507225607 12 338 0.0 3.2 0.00 0.00 0.00
20260507225206 12 338 0.0 0.0 0.00 0.00 0.00
20260507224804 12 338 1.6 3.2 0.00 0.00 0.00
20260507224403 12 338 3.2 4.8 0.00 0.00 0.00
20260507224001 12 338 3.2 6.4 0.00 0.00 0.00
20260507223559 12 338 4.8 8.0 0.00 0.00 0.00
20260507223151 12 315 3.2 6.4 0.00 0.00 0.00
20260507222750 12 315 3.2 8.0 0.00 0.00 0.00
20260507222347 12 335 4.8 8.0 0.00 0.00 0.00
20260507221946 12 316 6.4 11.3 0.00 0.00 0.00
20260507221544 12 329 6.4 9.7 0.00 0.00 0.00
20260507221143 12 357 3.2 9.7 0.00 0.00 0.00
20260507220740 12 0 3.2 6.4 0.00 0.00 0.00
20260507220339 12 357 3.2 6.4 0.00 0.00 0.00
20260507215938 12 326 6.4 11.3 0.00 0.00 0.00
20260507215536 12 321 6.4 12.9 0.00 0.00 0.00
20260507215127 12 315 6.4 11.3 0.00 0.00 0.00
20260507214724 12 292 4.8 8.0 0.00 0.00 0.00
20260507214323 12 292 4.8 8.0 0.00 0.00 0.00
20260507213922 12 292 3.2 8.0 0.00 0.00 0.00
20260507213521 12 289 6.4 11.3 0.00 0.00 0.00
20260507213118 13 292 6.4 8.0 0.00 0.00 0.00
20260507212717 13 289 6.4 8.0 0.00 0.00 0.00
20260507212316 13 290 6.4 9.7 0.00 0.00 0.00
20260507211914 13 291 8.0 14.5 0.00 0.00 0.00
20260507211511 13 290 8.0 11.3 0.00 0.00 0.00
20260507211103 14 292 4.8 9.7 0.00 0.00 0.00
20260507210702 14 292 4.8 9.7 0.00 0.00 0.00
20260507210301 14 292 3.2 6.4 0.00 0.00 0.00
20260507205858 14 299 4.8 9.7 0.00 0.00 0.00
20260507205457 14 299 4.8 9.7 0.00 0.00 0.00
20260507205056 14 315 3.2 6.4 0.00 0.00 0.00
20260507204654 15 307 4.8 6.4 0.00 0.00 0.00
20260507204253 15 299 3.2 9.7 0.00 0.00 0.00
20260507203851 15 316 4.8 6.4 0.00 0.00 0.00
20260507203449 15 292 3.2 3.2 0.00 0.00 0.00
20260507203041 15 309 4.8 8.0 0.00 0.00 0.00
20260507202639 15 325 3.2 8.0 0.00 0.00 0.00
20260507202237 15 315 4.8 8.0 0.00 0.00 0.00
20260507201836 15 315 4.8 9.7 0.00 0.00 0.00
20260507201434 15 292 1.6 6.4 0.00 0.00 0.00
20260507201032 15 307 3.2 8.0 0.00 0.00 0.00
20260507200629 15 338 1.6 4.8 0.00 0.00 0.00
20260507200228 15 338 0.0 3.2 0.00 0.00 0.00
20260507195827 15 338 0.0 0.0 0.00 0.00 0.00
20260507195426 15 338 0.0 3.2 0.00 0.00 0.00
20260507195016 15 338 0.0 3.2 0.00 0.00 0.00
20260507194615 15 338 0.0 0.0 0.00 0.00 0.00
20260507194214 15 338 0.0 3.2 0.00 0.00 0.00
20260507193813 14 343 3.2 8.0 0.00 0.00 0.00
20260507193411 15 338 3.2 6.4 0.00 0.00 0.00
20260507193008 15 340 4.8 6.4 0.00 0.00 0.00
20260507192607 15 345 4.8 6.4 0.00 0.00 0.00
20260507192206 15 316 4.8 9.7 0.00 0.00 0.00
20260507191805 15 351 3.2 8.0 0.00 0.00 0.00
20260507191402 15 342 4.8 9.7 0.00 0.00 0.00
20260507190954 15 345 4.8 6.4 0.00 0.00 0.00
20260507190552 15 304 3.2 12.9 0.00 0.00 0.00
20260507190151 14 324 6.4 11.3 0.00 0.00 0.00
20260507185749 15 328 6.4 12.9 0.00 0.00 0.00
20260507185347 16 306 9.7 16.1 0.00 0.00 0.00
20260507184946 16 318 9.7 16.1 0.00 0.00 0.00
20260507184544 16 297 6.4 16.1 0.00 0.00 0.00
20260507184142 16 279 6.4 9.7 0.00 0.00 0.00
20260507183741 16 275 6.4 14.5 0.00 0.00 0.00
20260507183339 16 296 9.7 16.1 0.00 0.00 0.00
20260507182931 17 136 6.4 9.7 0.00 0.00 0.00
20260507182529 17 138 6.4 9.7 0.00 0.00 0.00
20260507182127 17 145 6.4 11.3 0.00 0.00 0.00
20260507181726 17 144 4.8 8.0 0.00 0.00 0.00
20260507181324 17 144 6.4 11.3 0.00 0.00 0.00
20260507180923 17 157 8.0 9.7 0.00 0.00 0.00
20260507180521 17 159 11.3 16.1 0.00 0.00 0.00
20260507180119 17 153 8.0 12.9 0.00 0.00 0.00
20260507175719 18 176 9.7 12.9 0.00 0.00 0.00
20260507175317 18 157 8.0 11.3 0.00 0.00 0.00
20260507174908 18 135 3.2 6.4 0.00 0.00 0.00
20260507174506 18 135 1.6 6.4 0.00 0.00 0.00
20260507174105 17 135 0.0 1.6 0.00 0.00 0.00
20260507173704 18 135 3.2 4.8 0.00 0.00 0.00
20260507173301 18 139 8.0 12.9 0.00 0.00 0.00
20260507172900 18 135 6.4 12.9 0.00 0.00 0.00
20260507172458 18 128 9.7 12.9 0.00 0.00 0.00
20260507172057 19 132 8.0 11.3 0.00 0.00 0.00
20260507171656 18 121 6.4 9.7 0.00 0.00 0.00
20260507171253 19 110 6.4 9.7 0.00 0.00 0.00
20260507170845 19 135 8.0 14.5 0.00 0.00 0.00
20260507170443 18 136 8.0 16.1 0.00 0.00 0.00
20260507165238 18 140 9.7 16.1 0.00 0.00 0.00
20260507164837 18 138 9.7 12.9 0.00 0.00 0.00
20260507164436 18 136 9.7 14.5 0.00 0.00 0.00
20260507164033 18 144 11.3 16.1 0.00 0.00 0.00
20260507163632 18 145 11.3 19.3 0.00 0.00 0.00
20260507163231 18 146 12.9 20.9 0.00 0.00 0.00
20260507162823 18 145 11.3 17.7 0.00 0.00 0.00
20260507162420 18 147 11.3 17.7 0.00 0.00 0.00
20260507162019 18 141 8.0 12.9 0.00 0.00 0.00
20260507161618 18 135 6.4 9.7 0.00 0.00 0.00
20260507161216 18 136 9.7 14.5 0.00 0.00 0.00
20260507160815 18 139 8.0 12.9 0.00 0.00 0.00
20260507160412 18 138 9.7 14.5 0.00 0.00 0.00
20260507155610 18 136 9.7 16.1 0.00 0.00 0.00
20260507155208 18 135 8.0 12.9 0.00 0.00 0.00
20260507154759 19 126 11.3 16.1 0.00 0.00 0.00
20260507154357 20 139 6.4 11.3 0.00 0.00 0.00
20260507153956 20 175 6.4 9.7 0.00 0.00 0.00
20260507153555 20 202 6.4 9.7 0.00 0.00 0.00
20260507153152 20 202 6.4 9.7 0.00 0.00 0.00
20260507152751 20 202 8.0 12.9 0.00 0.00 0.00
20260507152349 20 202 9.7 16.1 0.00 0.00 0.00
20260507151948 20 202 8.0 12.9 0.00 0.00 0.00
20260507151546 20 211 9.7 16.1 0.00 0.00 0.00
20260507151144 20 222 8.0 12.9 0.00 0.00 0.00
20260507150736 20 218 8.0 17.7 0.00 0.00 0.00
20260507150335 20 220 8.0 12.9 0.00 0.00 0.00
20260507145934 20 216 9.7 17.7 0.00 0.00 0.00
20260507145532 20 213 8.0 14.5 0.00 0.00 0.00
20260507145130 20 230 4.8 11.3 0.00 0.00 0.00
20260507144729 20 221 8.0 14.5 0.00 0.00 0.00
20260507144327 20 225 8.0 12.9 0.00 0.00 0.00
20260507143925 20 234 8.0 14.5 0.00 0.00 0.00
20260507143524 20 233 9.7 14.5 0.00 0.00 0.00
20260507143122 20 230 6.4 11.3 0.00 0.00 0.00
20260507142714 20 240 6.4 12.9 0.00 0.00 0.00
20260507142311 20 228 6.4 14.5 0.00 0.00 0.00
20260507141509 20 224 9.7 16.1 0.00 0.00 0.00
20260507141107 20 215 9.7 16.1 0.00 0.00 0.00
20260507140705 20 202 6.4 11.3 0.00 0.00 0.00
20260507140303 21 221 4.8 9.7 0.00 0.00 0.00